Fremont, MI

3:46 AM EST on November 12, 2019 (GMT -0500)
Fremont

Weather History for KFFX - July, 2019

Change the Weather History Date:

Tuesday, July 30, 2019

  Actual Average (KMKG) Record (KMKG)
Temperature  
Mean Temperature 68 °F 71 °F  
Max Temperature 77 °F 80 °F 99 °F (1913)
Min Temperature 58 °F 62 °F 46 °F (1956)
Degree Days  
Heating Degree Days 0 0  
Month to date heating degree days 4  
Since 1 June heating degree days 70  
Since 1 July heating degree days 4  
Cooling Degree Days 2 7  
Month to date cooling degree days 201  
Year to date cooling degree days 335  
Since 1 June cooling degree days 306  
Growing Degree Days 18 (Base 50)    
Moisture  
Dew Point 58 °F    
Average Humidity 73    
Maximum Humidity 100    
Minimum Humidity 42    
Precipitation  
Precipitation 0.00 in 0.09 in 0.92 in (2000)
Month to date precipitation 2.28  
Year to date precipitation 17.10  
Snow  
Snow 0.00 in 0.00 in - ()
Month to date snowfall 0.0  
Since 1 June snowfall 0.0  
Since 1 July snowfall 0.0  
Snow Depth -    
Sea Level Pressure  
Sea Level Pressure 29.99 in    
Wind  
Wind Speed 5 mph (NNW)    
Max Wind Speed 15 mph    
Max Gust Speed 20 mph    
Visibility 8 miles    
Events Fog    
T = Trace of Precipitation, MM = Missing Value Source: NWS Daily Summary

Daily Weather History Graph

Daily Weather History Graph

Search for Another Location

Airport or City:

Astronomy

Jul. 30, 2019 Rise Set
Actual Time 6:31 AM EDT 9:08 PM EDT
Civil Twilight 5:58 AM EDT 9:41 PM EDT
Nautical Twilight 5:17 AM EDT 10:22 PM EDT
Astronomical Twilight 4:30 AM EDT 11:09 PM EDT
Moon 4:36 AM EDT (7/30) 8:15 PM EDT (7/30)
Length of Visible Light 15h 43m
Length of Day
14h 37m
Waning Crescent, 3% of the Moon is Illuminated
Jul 30
Waning Crescent
Jul 31
New
Aug 7
First Quarter
Aug 15
Full
Aug 23
Last Quarter

Hourly Weather History & Observations

Time (EDT) Temp. Dew Point Humidity Pressure Visibility Wind Dir Wind Speed Gust Speed Precip Events Conditions
12:15 AM 67.3 °F 67.3 °F 100% 29.89 in 0.2 mi WSW 6.9 mph - N/A Fog Fog
12:20 AM 67.3 °F 67.3 °F 100% 29.89 in 0.2 mi SW 6.9 mph - N/A Fog Fog
12:38 AM 67.1 °F 67.1 °F 100% 29.89 in 0.2 mi SW 5.8 mph - N/A Fog Fog
12:56 AM 67.1 °F 67.1 °F 100% 29.89 in 0.5 mi SW 4.6 mph - N/A Fog Fog
1:15 AM 67.1 °F 67.1 °F 100% 29.90 in 0.5 mi SW 3.5 mph - N/A Fog Fog
1:35 AM 67.1 °F 67.1 °F 100% 29.90 in 0.5 mi WSW 3.5 mph - N/A Fog Fog
1:59 AM 67.3 °F 67.1 °F 99% 29.90 in 1.2 mi SW 4.6 mph - N/A   Overcast
2:17 AM 67.1 °F 67.1 °F 100% 29.89 in 1.8 mi SW 3.5 mph - N/A   Overcast
2:35 AM 67.1 °F 67.1 °F 100% 29.89 in 1.5 mi Calm Calm - N/A   Overcast
2:36 AM 67.1 °F 67.1 °F 100% 29.89 in 1.5 mi Calm Calm - N/A   Overcast
2:55 AM 66.9 °F 66.9 °F 100% 29.89 in 1.8 mi Calm Calm - N/A   Overcast
3:15 AM 66.6 °F 66.6 °F 100% 29.89 in 1.8 mi Calm Calm - N/A   Overcast
3:38 AM 66.9 °F 66.9 °F 100% 29.90 in 1.8 mi Calm Calm - N/A   Overcast
3:56 AM 66.6 °F 66.6 °F 100% 29.90 in 0.8 mi Calm Calm - N/A   Overcast
4:15 AM 65.8 °F 65.8 °F 100% 29.90 in 0.2 mi Calm Calm - N/A Fog Fog
4:16 AM 65.7 °F 65.7 °F 100% 29.90 in 0.2 mi Calm Calm - N/A Fog Fog
4:35 AM 64.9 °F 64.9 °F 100% 29.91 in 0.2 mi Calm Calm - N/A Fog Fog
4:36 AM 64.8 °F 64.8 °F 100% 29.91 in 0.2 mi Calm Calm - N/A Fog Fog
4:59 AM 65.1 °F 65.1 °F 100% 29.91 in 1.5 mi Calm Calm - N/A   Overcast
5:17 AM 64.8 °F 64.8 °F 100% 29.92 in 7.0 mi Calm Calm - N/A   Overcast
5:35 AM 64.6 °F 64.6 °F 100% 29.92 in 10.0 mi Calm Calm - N/A   Scattered Clouds
5:55 AM 63.1 °F 63.1 °F 100% 29.92 in 7.0 mi NNW 3.5 mph - N/A   Clear
5:56 AM 63.1 °F 63.1 °F 100% 29.92 in 10.0 mi NNW 3.5 mph - N/A   Clear
6:15 AM 63.0 °F 63.0 °F 100% 29.93 in 10.0 mi NNW 4.6 mph - N/A   Clear
6:20 AM 63.0 °F 63.0 °F 100% 29.94 in 10.0 mi NNW 3.5 mph - N/A   Clear
6:38 AM 62.6 °F 62.6 °F 100% 29.94 in 10.0 mi NNW 3.5 mph - N/A   Clear
6:56 AM 62.1 °F 62.1 °F 100% 29.95 in 10.0 mi Calm Calm - N/A   Clear
7:15 AM 63.0 °F 63.0 °F 100% 29.96 in 10.0 mi NW 5.8 mph - N/A   Clear
7:35 AM 63.5 °F 63.5 °F 100% 29.96 in 10.0 mi NNW 4.6 mph - N/A   Scattered Clouds
7:36 AM 63.7 °F 63.5 °F 99% 29.96 in 10.0 mi NNW 4.6 mph - N/A   Scattered Clouds
7:59 AM 64.2 °F 63.5 °F 98% 29.96 in 10.0 mi North 6.9 mph - N/A   Clear
8:17 AM 65.3 °F 63.9 °F 95% 29.98 in 10.0 mi North 5.8 mph - N/A   Clear
8:35 AM 66.9 °F 63.7 °F 89% 29.98 in 10.0 mi North 6.9 mph - N/A   Scattered Clouds
8:55 AM 68.0 °F 61.7 °F 80% 29.98 in 10.0 mi NNE 8.1 mph - N/A   Scattered Clouds
9:15 AM 68.9 °F 60.6 °F 75% 29.99 in 10.0 mi North 6.9 mph - N/A   Clear
9:20 AM 69.1 °F 60.4 °F 74% 29.99 in 10.0 mi NNE 10.4 mph - N/A   Clear
9:38 AM 70.0 °F 59.9 °F 70% 29.99 in 10.0 mi NNE 8.1 mph - N/A   Clear
9:56 AM 70.7 °F 59.9 °F 69% 29.99 in 10.0 mi North 6.9 mph - N/A   Clear
10:15 AM 71.6 °F 59.9 °F 66% 29.99 in 10.0 mi North 4.6 mph - N/A   Clear
10:35 AM 72.5 °F 60.4 °F 66% 30.00 in 10.0 mi North 5.8 mph - N/A   Clear
10:59 AM 73.0 °F 59.7 °F 63% 30.00 in 10.0 mi North 5.8 mph - N/A   Clear
11:17 AM 74.3 °F 59.7 °F 60% 30.00 in 10.0 mi NNW 3.5 mph - N/A   Clear
11:35 AM 75.6 °F 59.9 °F 58% 30.00 in 10.0 mi Calm Calm - N/A   Scattered Clouds
11:55 AM 74.7 °F 60.3 °F 61% 30.00 in 10.0 mi North 8.1 mph - N/A   Scattered Clouds
12:15 PM 76.5 °F 59.5 °F 56% 30.00 in 10.0 mi North 6.9 mph - N/A   Mostly Cloudy
12:38 PM 73.9 °F 60.1 °F 62% 30.00 in 10.0 mi North 6.9 mph - N/A   Mostly Cloudy
12:56 PM 75.0 °F 59.0 °F 57% 30.00 in 10.0 mi Calm Calm - N/A   Mostly Cloudy
1:15 PM 73.9 °F 59.0 °F 59% 30.00 in 10.0 mi NNW 6.9 mph - N/A   Mostly Cloudy
1:35 PM 77.2 °F 57.9 °F 51% 30.00 in 10.0 mi NNW 11.5 mph 17.3 mph N/A   Scattered Clouds
1:59 PM 76.3 °F 55.0 °F 48% 30.01 in 10.0 mi NNW 10.4 mph - N/A   Mostly Cloudy
2:17 PM 77.9 °F 55.4 °F 46% 30.01 in 10.0 mi NNW 10.4 mph 16.1 mph N/A   Scattered Clouds
2:35 PM 77.5 °F 57.0 °F 49% 30.01 in 10.0 mi NNW 11.5 mph 18.4 mph N/A   Scattered Clouds
2:36 PM 77.7 °F 56.8 °F 48% 30.01 in 10.0 mi North 11.5 mph 17.3 mph N/A   Scattered Clouds
2:55 PM 75.7 °F 55.2 °F 49% 30.01 in 10.0 mi North 15.0 mph - N/A   Scattered Clouds
3:15 PM 76.6 °F 54.9 °F 47% 30.01 in 10.0 mi NW 11.5 mph 16.1 mph N/A   Mostly Cloudy
3:38 PM 77.5 °F 54.5 °F 45% 30.01 in 10.0 mi NNW 11.5 mph 18.4 mph N/A   Mostly Cloudy
3:55 PM 75.4 °F 54.1 °F 48% 30.02 in 10.0 mi NW 11.5 mph - N/A   Mostly Cloudy
4:15 PM 75.4 °F 54.0 °F 47% 30.01 in 10.0 mi NW 8.1 mph - N/A   Overcast
4:35 PM 77.0 °F 53.2 °F 44% 30.02 in 10.0 mi NNW 11.5 mph 19.6 mph N/A   Scattered Clouds
4:36 PM 76.8 °F 53.1 °F 44% 30.02 in 10.0 mi North 11.5 mph 19.6 mph N/A   Scattered Clouds
4:59 PM 76.1 °F 52.5 °F 44% 30.02 in 10.0 mi NW 13.8 mph - N/A   Clear
5:17 PM 76.1 °F 51.8 °F 43% 30.02 in 10.0 mi NNW 12.7 mph 17.3 mph N/A   Clear
5:35 PM 75.6 °F 51.3 °F 42% 30.02 in 10.0 mi NNW 11.5 mph 17.3 mph N/A   Clear
5:55 PM 74.8 °F 50.7 °F 43% 30.01 in 10.0 mi NNW 9.2 mph - N/A   Clear
5:56 PM 74.8 °F 50.7 °F 43% 30.01 in 10.0 mi NNW 9.2 mph - N/A   Clear
6:15 PM 73.9 °F 49.8 °F 43% 30.02 in 10.0 mi NNW 11.5 mph 17.3 mph N/A   Clear
6:20 PM 73.8 °F 49.5 °F 42% 30.02 in 10.0 mi North 12.7 mph - N/A   Clear
6:38 PM 73.8 °F 50.5 °F 44% 30.01 in 10.0 mi NW 11.5 mph - N/A   Clear
6:56 PM 72.9 °F 50.0 °F 44% 30.02 in 10.0 mi NNW 9.2 mph - N/A   Clear
7:15 PM 71.8 °F 50.0 °F 46% 30.02 in 10.0 mi NNW 13.8 mph - N/A   Clear
7:35 PM 70.7 °F 50.5 °F 49% 30.03 in 10.0 mi NNW 12.7 mph 16.1 mph N/A   Clear
7:36 PM 70.7 °F 50.5 °F 49% 30.03 in 10.0 mi NNW 12.7 mph 16.1 mph N/A   Clear
7:59 PM 69.1 °F 51.1 °F 53% 30.03 in 10.0 mi North 9.2 mph - N/A   Clear
8:17 PM 68.0 °F 50.7 °F 54% 30.04 in 10.0 mi North 9.2 mph - N/A   Clear
8:35 PM 66.7 °F 51.4 °F 58% 30.04 in 10.0 mi NNW 9.2 mph - N/A   Clear
8:36 PM 66.6 °F 51.4 °F 58% 30.04 in 10.0 mi NNW 9.2 mph - N/A   Clear
8:55 PM 65.1 °F 52.0 °F 62% 30.05 in 10.0 mi NNW 5.8 mph - N/A   Clear
8:56 PM 64.9 °F 52.0 °F 63% 30.05 in 10.0 mi NNW 5.8 mph - N/A   Clear
9:15 PM 63.5 °F 52.2 °F 67% 30.06 in 10.0 mi NNW 5.8 mph - N/A   Clear
9:38 PM 61.9 °F 52.5 °F 71% 30.07 in 10.0 mi NNW 5.8 mph - N/A   Clear
9:56 PM 60.8 °F 52.2 °F 73% 30.08 in 10.0 mi NNW 4.6 mph - N/A   Clear
10:15 PM 60.1 °F 52.7 °F 77% 30.08 in 10.0 mi NNW 4.6 mph - N/A   Clear
10:16 PM 60.1 °F 52.5 °F 76% 30.08 in 10.0 mi NNW 4.6 mph - N/A   Clear
10:35 PM 59.5 °F 52.2 °F 77% 30.08 in 10.0 mi North 4.6 mph - N/A   Clear
10:36 PM 59.5 °F 52.2 °F 77% 30.08 in 10.0 mi North 4.6 mph - N/A   Clear
10:59 PM 58.8 °F 52.0 °F 78% 30.09 in 10.0 mi North 3.5 mph - N/A   Clear
11:17 PM 59.0 °F 52.0 °F 78% 30.09 in 10.0 mi North 3.5 mph - N/A   Clear
11:35 PM 58.6 °F 52.3 °F 80% 30.10 in 10.0 mi North 3.5 mph - N/A   Clear
11:55 PM 58.3 °F 52.3 °F 81% 30.10 in 10.0 mi North 4.6 mph - N/A   Clear